レモン彗星

349P/Lemmon (2010)

English version
Home page
Updated on March 21, 2017

---------------------------------------------------------------------

・ プロフィール

符号 349P/2010 EY90
発見日 2010年3月14日
発見光度 19.9等
発見者 R. A. Kowalski (Mount Lemmon Survey)

・ 軌道要素

Epoch 2010 Nov. 20.0 TT = JDT 2455520.5
T 2010 Dec. 3.62587 TT                                  MPCW
q   2.4959560            (2000.0)            P               Q
n   0.14604986     Peri.  256.49376     -0.66285085     +0.74738377
a   3.5710995      Node   331.82677     -0.64457111     -0.60032161
e   0.3010679      Incl.    5.49792     -0.38099453     -0.28466027
P   6.75
From 41 observations 2010 Mar. 14-2017 Jan. 27, mean residual 0".5.

・ 光度変化

        m1 = 14.0 + 5 logΔ + 10.0 log r

---------------------------------------------------------------------

軌道要素はM.P.E.C. 2017-B82に掲載されたものです。
光度グラフはComet for Windowsで作成したものです。

---------------------------------------------------------------------

Copyright(C) Seiichi Yoshida (comet@aerith.net). All rights reserved.